Weather History for Monett, MO

Change the Weather History Date:

Saturday, May 4, 2013

  Actual Average (KJLN) Record (KJLN)
Temperature  
Mean Temperature 38 °F 64 °F  
Max Temperature 44 °F 75 °F 94 °F (2014)
Min Temperature 32 °F 53 °F 33 °F (1954)
Degree Days  
Heating Degree Days 27 4  
Month to date heating degree days 16  
Since 1 July heating degree days 4019  
Cooling Degree Days 0 2  
Month to date cooling degree days 8  
Year to date cooling degree days 62  
Moisture  
Dew Point 34 °F    
Average Humidity 90    
Maximum Humidity 100    
Minimum Humidity 66    
Precipitation  
Precipitation 0.03 in 0.19 in 5.21 in (1999)
Month to date precipitation 0.77  
Year to date precipitation 13.01  
Sea Level Pressure  
Sea Level Pressure 29.89 in    
Wind  
Wind Speed 4 mph (NNW)    
Max Wind Speed 10 mph    
Max Gust Speed 16 mph    
Visibility 8 miles    
Events Rain , Snow    
T = Trace of Precipitation, MM = Missing Value Source: NWS Daily Summary

Daily Weather History Graph

Daily Weather History Graph

Search for Another Location

Airport:

Trip Planner

Search our weather history database for the weather conditions in past years. The results will help you decide how hot, cold, wet, or windy it might be!

Date:

Astronomy

May. 04, 2013 Rise Set
Actual Time 6:18 AM CDT 8:07 PM CDT
Civil Twilight 5:50 AM CDT 8:35 PM CDT
Nautical Twilight 5:16 AM CDT 9:10 PM CDT
Astronomical Twilight 4:40 AM CDT 9:46 PM CDT
Moon 3:09 AM CDT (5/4) 3:13 PM CDT (5/4)
Length of Visible Light 14h 45m
Length of Day
13h 49m
Waning Crescent, 27% of the Moon is Illuminated
May 4
Waning Crescent
May 9
New
May 17
First Quarter
May 24
Full
May 31
Last Quarter

Hourly Weather History & Observations

Time (CDT) Temp. Windchill Dew Point Humidity Pressure Visibility Wind Dir Wind Speed Gust Speed Precip Events Conditions
12:15 AM 32.0 °F - 32.0 °F 100% 29.90 in 1.5 mi Calm Calm - 0.01 in Snow Light Snow
12:35 AM 32.0 °F 28.7 °F 32.0 °F 100% 29.89 in 4.0 mi West 3.5 mph - 0.01 in   Overcast
12:55 AM 32.0 °F 28.7 °F 32.0 °F 100% 29.89 in 3.0 mi West 3.5 mph - 0.01 in Snow Light Snow
1:15 AM 32.0 °F 27.5 °F 32.0 °F 100% 29.88 in 4.0 mi West 4.6 mph - N/A Snow Light Snow
1:35 AM 32.0 °F 27.5 °F 32.0 °F 100% 29.88 in 4.0 mi West 4.6 mph - N/A   Overcast
1:55 AM 32.0 °F 26.4 °F 32.0 °F 100% 29.87 in 5.0 mi West 5.8 mph - N/A Snow Light Snow
2:15 AM 32.0 °F 26.4 °F 32.0 °F 100% 29.86 in 4.0 mi West 5.8 mph - 0.01 in   Overcast
2:35 AM 32.0 °F 26.4 °F 32.0 °F 100% 29.85 in 3.0 mi West 5.8 mph - 0.01 in Snow Light Snow
2:55 AM 32.0 °F 26.4 °F 32.0 °F 100% 29.85 in 3.0 mi West 5.8 mph - 0.01 in Snow Light Snow
3:15 AM 32.0 °F 26.4 °F 32.0 °F 100% 29.84 in 4.0 mi West 5.8 mph - N/A Snow Light Snow
3:35 AM 32.0 °F 26.4 °F 32.0 °F 100% 29.84 in 2.5 mi West 5.8 mph - 0.01 in Snow Light Snow
3:55 AM 32.0 °F 27.5 °F 32.0 °F 100% 29.84 in 5.0 mi West 4.6 mph - 0.01 in Snow Light Snow
4:15 AM 32.0 °F 27.5 °F 32.0 °F 100% 29.84 in 5.0 mi West 4.6 mph - N/A Snow Light Snow
4:35 AM 32.0 °F 26.4 °F 32.0 °F 100% 29.84 in 5.0 mi West 5.8 mph - N/A Snow Light Snow
4:55 AM 32.0 °F 26.4 °F 32.0 °F 100% 29.83 in 7.0 mi West 5.8 mph - N/A Snow Light Snow
5:15 AM 33.8 °F 29.6 °F 33.8 °F 100% 29.83 in 10.0 mi WNW 4.6 mph - N/A   Overcast
5:35 AM 33.8 °F 28.6 °F 33.8 °F 100% 29.83 in 10.0 mi West 5.8 mph - N/A   Overcast
5:55 AM 33.8 °F 29.6 °F 33.8 °F 100% 29.83 in 4.0 mi West 4.6 mph - N/A   Drizzle
6:15 AM 33.8 °F 30.8 °F 33.8 °F 100% 29.83 in 5.0 mi West 3.5 mph - N/A Rain Light Rain
6:35 AM 33.8 °F 30.8 °F 33.8 °F 100% 29.83 in 7.0 mi West 3.5 mph - N/A   Light Drizzle
6:55 AM 33.8 °F 28.6 °F 33.8 °F 100% 29.83 in 10.0 mi WNW 5.8 mph - N/A Rain Light Rain
7:15 AM 33.8 °F 30.8 °F 33.8 °F 100% 29.83 in 10.0 mi WNW 3.5 mph - N/A   Overcast
7:35 AM 33.8 °F 29.6 °F 33.8 °F 100% 29.83 in 10.0 mi NW 4.6 mph - N/A   Overcast
7:55 AM 33.8 °F 30.8 °F 32.0 °F 93% 29.83 in 10.0 mi NW 3.5 mph - N/A   Overcast
8:15 AM 33.8 °F 29.6 °F 33.8 °F 100% 29.84 in 10.0 mi NW 4.6 mph - N/A   Overcast
8:35 AM 33.8 °F 30.8 °F 32.0 °F 93% 29.84 in 10.0 mi North 3.5 mph - N/A   Overcast
8:55 AM 33.8 °F 30.8 °F 32.0 °F 93% 29.84 in 10.0 mi North 3.5 mph - N/A   Overcast
9:15 AM 33.8 °F 28.6 °F 33.8 °F 100% 29.84 in 10.0 mi North 5.8 mph - N/A   Overcast
9:35 AM 33.8 °F 29.6 °F 32.0 °F 93% 29.84 in 10.0 mi NNW 4.6 mph - N/A   Overcast
9:55 AM 35.6 °F 30.7 °F 32.0 °F 87% 29.84 in 10.0 mi North 5.8 mph - N/A   Overcast
10:15 AM 35.6 °F 31.7 °F 32.0 °F 87% 29.86 in 10.0 mi North 4.6 mph - N/A   Overcast
10:35 AM 35.6 °F 32.8 °F 33.8 °F 93% 29.86 in 10.0 mi NW 3.5 mph - N/A   Light Drizzle
10:55 AM 35.6 °F 31.7 °F 33.8 °F 93% 29.86 in 10.0 mi North 4.6 mph - N/A   Light Drizzle
11:15 AM 35.6 °F 32.8 °F 33.8 °F 93% 29.87 in 7.0 mi NE 3.5 mph - N/A   Light Drizzle
11:35 AM 35.6 °F 32.8 °F 33.8 °F 93% 29.87 in 4.0 mi North 3.5 mph - N/A Rain Light Rain
11:55 AM 37.4 °F 32.8 °F 33.8 °F 87% 29.87 in 10.0 mi North 5.8 mph - N/A   Overcast
12:15 PM 37.4 °F - 33.8 °F 87% 29.87 in 10.0 mi Calm Calm - N/A   Overcast
12:35 PM 37.4 °F 33.8 °F 33.8 °F 87% 29.88 in 10.0 mi NE 4.6 mph - N/A   Overcast
12:55 PM 37.4 °F - 33.8 °F 87% 29.88 in 10.0 mi Calm Calm - N/A   Drizzle
1:15 PM 37.4 °F 34.9 °F 33.8 °F 87% 29.88 in 10.0 mi NNE 3.5 mph - N/A Rain Light Rain
1:35 PM 39.2 °F 37.0 °F 33.8 °F 81% 29.88 in 10.0 mi WNW 3.5 mph - N/A   Overcast
1:55 PM 39.2 °F 35.9 °F 33.8 °F 81% 29.89 in 10.0 mi North 4.6 mph - N/A   Overcast
2:15 PM 39.2 °F 35.9 °F 32.0 °F 75% 29.90 in 10.0 mi NNE 4.6 mph - N/A   Overcast
2:35 PM 39.2 °F 35.9 °F 33.8 °F 81% 29.90 in 7.0 mi West 4.6 mph - N/A   Heavy Drizzle
2:55 PM 39.2 °F - 35.6 °F 87% 29.90 in 10.0 mi Calm Calm - N/A   Overcast
3:15 PM 39.2 °F 37.0 °F 33.8 °F 81% 29.91 in 10.0 mi NW 3.5 mph - N/A   Overcast
3:35 PM 39.2 °F 35.0 °F 35.6 °F 87% 29.91 in 10.0 mi North 5.8 mph - N/A Rain Light Rain
3:55 PM 41.0 °F 35.2 °F 35.6 °F 81% 29.91 in 10.0 mi North 9.2 mph - N/A   Overcast
4:15 PM 41.0 °F 36.4 °F 35.6 °F 81% 29.92 in 10.0 mi North 6.9 mph - N/A   Overcast
4:35 PM 41.0 °F 38.0 °F 35.6 °F 81% 29.92 in 10.0 mi North 4.6 mph - N/A   Overcast
4:55 PM 42.8 °F 37.5 °F 35.6 °F 76% 29.92 in 10.0 mi North 9.2 mph - N/A   Overcast
5:15 PM 42.8 °F 38.6 °F 35.6 °F 76% 29.92 in 10.0 mi NNW 6.9 mph - N/A   Mostly Cloudy
5:35 PM 42.8 °F 38.6 °F 35.6 °F 76% 29.93 in 10.0 mi NNW 6.9 mph - N/A   Scattered Clouds
5:55 PM 44.6 °F 40.2 °F 33.8 °F 66% 29.93 in 10.0 mi NNE 8.1 mph - N/A   Scattered Clouds
6:15 PM 44.6 °F 39.2 °F 33.8 °F 66% 29.93 in 10.0 mi NNW 10.4 mph 16.1 mph N/A   Overcast
6:35 PM 42.8 °F 38.0 °F 33.8 °F 70% 29.93 in 10.0 mi North 8.1 mph - N/A   Overcast
6:55 PM 42.8 °F 39.3 °F 35.6 °F 76% 29.93 in 10.0 mi North 5.8 mph - N/A   Mostly Cloudy
7:15 PM 42.8 °F 39.3 °F 33.8 °F 70% 29.94 in 10.0 mi NNE 5.8 mph - N/A   Mostly Cloudy
7:35 PM 42.8 °F 40.1 °F 33.8 °F 70% 29.94 in 10.0 mi NNE 4.6 mph - N/A   Overcast
7:55 PM 42.8 °F 41.1 °F 35.6 °F 76% 29.95 in 10.0 mi North 3.5 mph - N/A   Overcast
8:15 PM 42.8 °F - 35.6 °F 76% 29.96 in 10.0 mi Calm Calm - N/A   Overcast
8:35 PM 41.0 °F 37.1 °F 35.6 °F 81% 29.96 in 10.0 mi NNW 5.8 mph - N/A   Overcast
8:55 PM 41.0 °F 37.1 °F 35.6 °F 81% 29.96 in 10.0 mi North 5.8 mph - N/A   Scattered Clouds
9:15 PM 39.2 °F 35.0 °F 35.6 °F 87% 29.97 in 10.0 mi NW 5.8 mph - N/A   Scattered Clouds
9:35 PM 37.4 °F 32.8 °F 35.6 °F 93% 29.98 in 10.0 mi NNW 5.8 mph - N/A   Scattered Clouds
9:55 PM 37.4 °F 33.8 °F 35.6 °F 93% 29.98 in 10.0 mi North 4.6 mph - N/A   Scattered Clouds
10:15 PM 35.6 °F 31.7 °F 33.8 °F 93% 29.99 in 10.0 mi North 4.6 mph - N/A   Clear
10:35 PM 35.6 °F 32.8 °F 35.6 °F 100% 30.00 in 10.0 mi North 3.5 mph - N/A   Clear
10:55 PM 35.6 °F 31.7 °F 33.8 °F 93% 30.00 in 10.0 mi North 4.6 mph - N/A   Clear
11:15 PM 35.6 °F 31.7 °F 33.8 °F 93% 30.00 in 10.0 mi North 4.6 mph - N/A   Scattered Clouds
11:35 PM 35.6 °F 31.7 °F 35.6 °F 100% 30.00 in 10.0 mi North 4.6 mph - N/A   Scattered Clouds
11:55 PM 37.4 °F 32.8 °F 35.6 °F 93% 30.00 in 10.0 mi North 5.8 mph - N/A   Mostly Cloudy